KM4DDJ Weather Reports


time (UTC)temp
C
wind
direction
speed
KPH
gust
KPH
rain 1hr
cm
rain 24hr
cm
rain mn
cm
humidity
%
barometer
mb
20260906095519 21 0 0.0 0.0 0.00 0.18 0.00 99 1014.3
20260906095019 21 0 0.0 0.0 0.00 0.18 0.00 98 1014.4
20260906094539 21 0 0.0 0.0 0.00 0.18 0.00 98 1014.2
20260906094020 21 0 0.0 0.0 0.00 0.18 0.00 98 1014.3
20260906093520 21 0 0.0 0.0 0.00 0.18 0.00 98 1014.2
20260906093050 21 0 0.0 0.0 0.00 0.18 0.00 98 1014.3
20260906092518 21 0 0.0 0.0 0.00 0.18 0.00 98 1014.3
20260906092021 21 0 0.0 0.0 0.00 0.18 0.00 98 1014.2
20260906091540 21 0 0.0 0.0 0.00 0.18 0.00 98 1014.2
20260906091020 21 0 0.0 0.0 0.00 0.18 0.00 99 1014.3
20260906090518 21 0 0.0 1.6 0.00 0.18 0.00 98 1014.3
20260906090043 21 0 0.0 1.6 0.00 0.18 0.00 98 1014.3
20260906085517 21 0 0.0 0.0 0.00 0.18 0.00 98 1014.5
20260906085020 21 0 0.0 0.0 0.00 0.18 0.00 98 1014.5
20260906084545 21 0 0.0 0.0 0.00 0.18 0.00 98 1014.4
20260906084020 20 0 0.0 0.0 0.00 0.18 0.00 98 1014.3
20260906083521 21 0 0.0 0.0 0.00 0.18 0.00 98 1014.2
20260906083041 21 0 0.0 0.0 0.00 0.18 0.00 98 1014.3
20260906082518 20 0 0.0 0.0 0.00 0.18 0.00 98 1014.3
20260906082020 20 0 0.0 0.0 0.00 0.18 0.00 98 1014.2
20260906081550 20 0 0.0 0.0 0.00 0.18 0.00 98 1014.1
20260906081017 20 0 0.0 0.0 0.00 0.18 0.00 98 1014.0
20260906080520 20 0 0.0 0.0 0.00 0.18 0.00 98 1014.1
20260906080040 20 0 0.0 0.0 0.00 0.18 0.00 97 1014.0
20260906075518 20 0 0.0 4.8 0.00 0.18 0.00 97 1013.9
20260906075017 21 0 0.0 4.8 0.00 0.18 0.00 97 1013.9
20260906074539 21 199 0.0 3.2 0.00 0.18 0.00 97 1013.9
20260906074020 21 0 0.0 1.6 0.00 0.18 0.00 97 1013.8
20260906073521 21 0 0.0 1.6 0.00 0.18 0.00 97 1013.8
20260906073051 21 160 0.0 1.6 0.00 0.18 0.00 97 1013.8
20260906072518 21 0 0.0 0.0 0.00 0.18 0.00 97 1013.8
20260906072019 21 0 0.0 0.0 0.00 0.18 0.00 97 1013.8
20260906071540 21 0 0.0 0.0 0.00 0.18 0.00 97 1013.8
20260906071019 21 0 0.0 1.6 0.00 0.18 0.00 97 1014.0
20260906070519 21 0 0.0 1.6 0.00 0.18 0.00 97 1013.9
20260906070051 21 87 0.0 1.6 0.00 0.18 0.00 97 1013.9
20260906065519 21 0 0.0 1.6 0.00 0.18 0.00 97 1013.9
20260906065020 21 0 0.0 0.0 0.00 0.18 0.00 97 1014.1
20260906064541 21 0 0.0 0.0 0.00 0.18 0.00 97 1014.2
20260906064018 21 0 0.0 1.6 0.00 0.18 0.00 96 1014.2
20260906063520 21 0 0.0 1.6 0.00 0.18 0.00 97 1014.2
20260906063042 21 0 0.0 0.0 0.00 0.18 0.00 97 1014.3
20260906062518 21 0 0.0 1.6 0.00 0.18 0.00 97 1014.6
20260906062018 21 0 0.0 1.6 0.00 0.18 0.00 97 1014.7
20260906061558 21 89 0.0 1.6 0.00 0.18 0.00 96 1014.6
20260906061020 21 0 0.0 1.6 0.00 0.18 0.00 97 1014.4
20260906060519 21 91 0.0 1.6 0.00 0.18 0.00 97 1014.6
20260906060037 21 58 0.0 1.6 0.00 0.18 0.00 96 1014.5
20260906055519 21 0 0.0 0.0 0.00 0.18 0.00 97 1014.5
20260906055019 21 0 0.0 0.0 0.00 0.18 0.00 97 1014.5
20260906054541 21 0 0.0 0.0 0.00 0.18 0.00 97 1014.5
20260906054020 21 0 0.0 0.0 0.00 0.18 0.00 97 1014.5
20260906053519 21 0 0.0 0.0 0.00 0.18 0.00 97 1014.6
20260906053045 21 0 0.0 1.6 0.00 0.18 0.00 97 1014.7
20260906052518 21 0 0.0 1.6 0.00 0.18 0.00 97 1014.5
20260906052018 21 57 0.0 1.6 0.00 0.18 0.00 97 1014.6
20260906051540 21 57 0.0 1.6 0.00 0.18 0.00 97 1014.6
20260906051018 21 57 0.0 0.0 0.00 0.18 0.00 97 1014.7
20260906050519 21 0 0.0 0.0 0.00 0.18 0.00 97 1014.7
20260906050105 21 0 0.0 0.0 0.00 0.18 0.00 97 1014.7
20260906045519 21 0 0.0 1.6 0.00 0.18 0.00 97 1014.8
20260906045021 21 0 0.0 1.6 0.00 0.18 0.00 98 1014.9
20260906044541 21 0 0.0 1.6 0.00 0.18 0.00 97 1014.7
20260906044022 21 0 0.0 0.0 0.00 0.18 0.00 97 1014.7
20260906043520 21 0 0.0 0.0 0.00 0.18 0.00 97 1014.7
20260906043048 21 0 0.0 0.0 0.00 0.18 0.00 97 1014.7
20260906042520 21 0 0.0 0.0 0.00 0.18 0.00 97 1014.7
20260906042017 21 0 0.0 0.0 0.00 0.18 0.00 97 1014.7
20260906041540 21 0 0.0 0.0 0.00 0.18 0.00 97 1014.7
20260906041020 21 0 0.0 0.0 0.00 0.18 0.00 97 1014.9
20260906040519 21 0 0.0 1.6 0.00 0.18 0.00 97 1014.9
20260906040057 21 0 0.0 1.6 0.00 0.18 0.00 97 1014.9
20260906035519 21 0 0.0 0.0 0.00 0.18 0.18 96 1015.0
20260906035019 21 0 0.0 0.0 0.00 0.18 0.18 96 1014.9
20260906034541 21 0 0.0 0.0 0.00 0.18 0.18 96 1014.8
20260906034020 21 0 0.0 0.0 0.00 0.18 0.18 96 1014.9
20260906033520 21 0 0.0 1.6 0.00 0.18 0.18 96 1014.9
20260906033038 21 0 0.0 1.6 0.00 0.18 0.18 96 1015.2
20260906032517 21 0 0.0 1.6 0.00 0.18 0.18 97 1015.1
20260906032020 21 58 0.0 1.6 0.00 0.18 0.18 97 1015.1
20260906031539 21 57 0.0 0.0 0.00 0.18 0.18 97 1015.3
20260906031019 21 0 0.0 3.2 0.00 0.18 0.18 97 1015.2
20260906030521 21 0 0.0 3.2 0.00 0.18 0.18 97 1015.2
20260906030040 21 58 1.6 3.2 0.00 0.18 0.18 97 1015.2
20260906025520 21 0 0.0 0.0 0.00 0.18 0.18 97 1015.2
20260906025021 22 0 0.0 0.0 0.00 0.18 0.18 97 1015.3
20260906024544 22 0 0.0 0.0 0.00 0.18 0.18 97 1015.3
20260906024020 22 0 0.0 0.0 0.00 0.18 0.18 97 1015.0
20260906023521 22 0 0.0 0.0 0.00 0.18 0.18 97 1015.2
20260906023056 22 0 0.0 0.0 0.00 0.18 0.18 97 1014.8
20260906022518 22 0 0.0 0.0 0.00 0.18 0.18 97 1014.9
20260906022020 22 0 0.0 0.0 0.00 0.18 0.18 96 1014.8
20260906021544 22 0 0.0 0.0 0.00 0.18 0.18 96 1014.7
20260906021019 22 0 0.0 0.0 0.00 0.18 0.18 96 1014.8
20260906020524 22 0 0.0 3.2 0.00 0.18 0.18 96 1014.9
20260906020039 22 0 0.0 3.2 0.00 0.18 0.18 96 1014.8
20260906015519 22 195 1.6 3.2 0.00 0.18 0.18 96 1014.8
20260906015018 22 0 0.0 3.2 0.00 0.18 0.18 96 1014.6
20260906014554 22 79 0.0 3.2 0.00 0.18 0.18 96 1014.5
20260906014019 22 0 0.0 8.0 0.00 0.18 0.18 96 1014.5
20260906013518 22 0 0.0 8.0 0.00 0.18 0.18 96 1014.6
20260906013041 22 0 0.0 3.2 0.00 0.18 0.18 95 1014.6
20260906012522 22 42 3.2 3.2 0.00 0.18 0.18 95 1014.6
20260906012019 22 0 0.0 6.4 0.00 0.18 0.18 95 1014.5
20260906011551 22 0 0.0 6.4 0.00 0.18 0.18 95 1014.5
20260906011018 22 0 1.6 6.4 0.00 0.18 0.18 95 1014.4
20260906010520 23 18 0.0 4.8 0.00 0.18 0.18 94 1014.2
20260906010041 23 40 1.6 4.8 0.00 0.18 0.18 95 1014.1
20260906005519 23 36 1.6 3.2 0.00 0.18 0.18 94 1014.0
20260906005021 23 199 0.0 3.2 0.00 0.18 0.18 93 1014.1
20260906004539 23 199 0.0 3.2 0.03 0.18 0.18 94 1014.0
20260906004029 23 41 0.0 3.2 0.05 0.18 0.18 93 1013.8
20260906003518 23 0 0.0 3.2 0.05 0.18 0.18 93 1013.9
20260906003040 23 0 0.0 4.8 0.05 0.18 0.18 92 1013.8
20260906002517 23 0 1.6 6.4 0.05 0.18 0.18 92 1013.9
20260906002021 23 234 0.0 6.4 0.05 0.18 0.18 93 1014.1
20260906001541 24 33 1.6 8.0 0.05 0.18 0.18 93 1013.9
20260906001018 24 239 3.2 8.0 0.05 0.18 0.18 92 1013.9
20260906000520 25 310 3.2 4.8 0.08 0.18 0.18 93 1014.1
20260906000042 25 358 1.6 3.2 0.18 0.18 0.18 92 1014.1
20260905235517 25 271 0.0 1.6 0.18 0.18 0.18 92 1014.0
20260905235024 25 0 1.6 4.8 0.18 0.18 0.18 92 1014.0
20260905234552 26 0 0.0 4.8 0.15 0.15 0.15 91 1014.3
20260905234019 26 41 1.6 4.8 0.13 0.13 0.13 89 1014.2
20260905233520 26 52 0.0 3.2 0.13 0.13 0.13 88 1014.0
20260905233044 26 0 0.0 3.2 0.13 0.13 0.13 85 1014.0
20260905232517 26 261 1.6 4.8 0.13 0.13 0.13 83 1013.9
20260905232019 27 293 3.2 6.4 0.13 0.13 0.13 85 1014.0
20260905231542 27 309 3.2 20.9 0.13 0.13 0.13 85 1013.9
20260905231017 28 219 8.0 20.9 0.13 0.13 0.13 79 1013.8
20260905230517 30 259 11.3 19.3 0.10 0.10 0.10 72 1013.8
20260905230043 32 15 3.2 4.8 0.00 0.00 0.00 68 1013.8
20260905225525 32 0 0.0 9.7 0.00 0.00 0.00 62 1013.7
20260905225017 32 200 3.2 11.3 0.00 0.00 0.00 61 1013.7
20260905224546 33 197 6.4 11.3 0.00 0.00 0.00 60 1013.6
20260905224017 33 176 3.2 8.0 0.00 0.00 0.00 60 1013.6
20260905223522 33 167 3.2 8.0 0.00 0.00 0.00 59 1013.7
20260905223042 33 196 1.6 8.0 0.00 0.00 0.00 59 1013.7
20260905222519 33 209 3.2 6.4 0.00 0.00 0.00 58 1013.7
20260905222019 34 133 1.6 4.8 0.00 0.00 0.00 58 1013.7
20260905221542 33 0 0.0 6.4 0.00 0.00 0.00 59 1013.7
20260905221020 33 0 0.0 6.4 0.00 0.00 0.00 60 1013.6
20260905220520 32 130 3.2 6.4 0.00 0.00 0.00 60 1013.7
20260905220041 32 209 1.6 6.4 0.00 0.00 0.00 61 1013.7
20260905215522 32 145 3.2 6.4 0.00 0.00 0.00 60 1013.7
20260905215025 32 0 0.0 8.0 0.00 0.00 0.00 61 1013.7
20260905214539 32 206 4.8 9.7 0.00 0.00 0.00 62 1013.9
20260905214020 32 208 4.8 9.7 0.00 0.00 0.00 62 1014.0
20260905213518 32 217 6.4 9.7 0.00 0.00 0.00 62 1014.0
20260905213040 31 160 1.6 8.0 0.00 0.00 0.00 63 1013.9
20260905212520 31 81 1.6 12.9 0.00 0.00 0.00 63 1014.1
20260905212019 31 105 4.8 12.9 0.00 0.00 0.00 63 1014.0
20260905211542 31 121 6.4 12.9 0.00 0.00 0.00 62 1014.0
20260905211021 31 160 6.4 16.1 0.00 0.00 0.00 63 1014.1
20260905210520 31 147 6.4 16.1 0.00 0.00 0.00 63 1014.3
20260905210041 31 155 9.7 16.1 0.00 0.00 0.00 63 1014.4
20260905205522 31 154 9.7 17.7 0.00 0.00 0.00 64 1014.5
20260905205023 31 132 9.7 17.7 0.00 0.00 0.00 64 1014.4
20260905204546 31 180 6.4 14.5 0.00 0.00 0.00 65 1014.5
20260905204017 31 138 6.4 12.9 0.00 0.00 0.00 65 1014.3
20260905203519 31 165 6.4 11.3 0.00 0.00 0.00 63 1014.2
20260905203042 32 144 1.6 9.7 0.00 0.00 0.00 61 1014.3
20260905202518 32 49 0.0 6.4 0.00 0.00 0.00 62 1014.3
20260905202018 32 0 1.6 8.0 0.00 0.00 0.00 61 1014.4
20260905201543 31 70 0.0 11.3 0.00 0.00 0.00 62 1014.5
20260905201023 31 62 4.8 12.9 0.00 0.00 0.00 63 1014.6
20260905200521 31 64 4.8 14.5 0.00 0.00 0.00 63 1014.7
20260905200050 31 134 8.0 14.5 0.00 0.00 0.00 64 1014.6
20260905195525 32 128 6.4 12.9 0.00 0.00 0.00 61 1014.7
20260905195022 32 147 1.6 12.9 0.00 0.00 0.00 65 1014.9
20260905194544 31 0 3.2 12.9 0.00 0.00 0.00 64 1014.9
20260905194021 31 140 6.4 16.1 0.00 0.00 0.00 63 1014.9
20260905193520 31 136 6.4 16.1 0.00 0.00 0.00 67 1014.8
20260905193042 31 151 6.4 16.1 0.00 0.00 0.00 67 1014.9
20260905192520 31 143 8.0 17.7 0.00 0.00 0.00 64 1015.2
20260905192020 31 114 11.3 20.9 0.00 0.00 0.00 65 1015.4
20260905191545 31 157 9.7 20.9 0.00 0.00 0.00 66 1015.2
20260905191020 32 131 6.4 17.7 0.00 0.00 0.00 60 1015.4
20260905190518 32 93 8.0 17.7 0.00 0.00 0.00 60 1015.6
20260905190047 32 114 6.4 14.5 0.00 0.00 0.00 59 1015.5
20260905185521 32 88 6.4 14.5 0.00 0.00 0.00 61 1015.3
20260905185018 32 75 6.4 16.1 0.00 0.00 0.00 61 1015.4
20260905184554 32 96 4.8 16.1 0.00 0.00 0.00 63 1015.5
20260905184018 31 164 8.0 16.1 0.00 0.00 0.00 62 1015.5
20260905183519 31 114 6.4 12.9 0.00 0.00 0.00 65 1015.6
20260905183046 31 70 3.2 11.3 0.00 0.00 0.00 67 1015.6
20260905182520 31 68 6.4 17.7 0.00 0.00 0.00 69 1015.7
20260905182018 30 54 3.2 17.7 0.00 0.00 0.00 70 1015.9
20260905181539 30 141 8.0 17.7 0.00 0.00 0.00 71 1015.9
20260905181018 29 124 4.8 20.9 0.00 0.00 0.00 73 1015.9
20260905180520 29 87 9.7 20.9 0.00 0.00 0.00 73 1016.2
20260905180039 28 27 8.0 19.3 0.00 0.00 0.00 74 1016.1
20260905175526 28 92 9.7 19.3 0.00 0.00 0.00 76 1016.3
20260905175022 28 72 11.3 17.7 0.00 0.00 0.00 75 1016.4
20260905174542 28 91 9.7 22.5 0.00 0.00 0.00 75 1016.6
20260905174020 28 71 9.7 22.5 0.00 0.00 0.00 75 1016.7
20260905173519 28 60 9.7 17.7 0.00 0.00 0.00 75 1016.7
20260905173042 28 68 8.0 16.1 0.00 0.00 0.00 75 1016.7
20260905172520 28 41 9.7 16.1 0.00 0.00 0.00 74 1016.7
20260905172020 28 10 9.7 16.1 0.00 0.00 0.00 74 1016.6
20260905171540 28 25 8.0 19.3 0.00 0.00 0.00 74 1016.6
20260905171019 29 16 11.3 19.3 0.00 0.00 0.00 74 1016.6
20260905170519 29 46 9.7 19.3 0.00 0.00 0.00 74 1016.7
20260905170041 29 345 12.9 22.5 0.00 0.00 0.00 74 1016.9
20260905165521 30 10 12.9 22.5 0.00 0.00 0.00 73 1016.8
20260905165021 30 26 14.5 24.1 0.00 0.00 0.00 72 1016.9
20260905164542 30 324 11.3 24.1 0.00 0.00 0.00 71 1016.8
20260905164018 30 338 9.7 19.3 0.00 0.00 0.00 71 1016.6
20260905163520 30 323 12.9 19.3 0.00 0.00 0.00 69 1016.6
20260905163042 30 333 6.4 16.1 0.00 0.00 0.00 70 1016.5
20260905162518 30 338 9.7 16.1 0.00 0.00 0.00 70 1016.7
20260905162019 31 304 9.7 14.5 0.00 0.00 0.00 67 1016.7
20260905161540 31 314 6.4 14.5 0.00 0.00 0.00 65 1016.8
20260905161020 32 286 4.8 9.7 0.00 0.00 0.00 67 1016.7
20260905160519 32 202 4.8 8.0 0.00 0.00 0.00 66 1016.7
20260905160043 31 0 3.2 8.0 0.00 0.00 0.00 67 1016.7
20260905155522 31 229 3.2 8.0 0.00 0.00 0.00 68 1016.8
20260905155022 31 0 1.6 9.7 0.00 0.00 0.00 68 1016.8
20260905154543 31 307 4.8 9.7 0.00 0.00 0.00 69 1016.7
20260905154020 31 224 3.2 9.7 0.00 0.00 0.00 70 1016.8
20260905153518 31 171 4.8 8.0 0.00 0.00 0.00 69 1016.9
20260905153053 31 255 1.6 8.0 0.00 0.00 0.00 72 1016.7
20260905152524 30 224 1.6 8.0 0.00 0.00 0.00 73 1016.8
20260905152024 30 243 1.6 9.7 0.00 0.00 0.00 73 1016.7
20260905151544 30 233 3.2 9.7 0.00 0.00 0.00 73 1016.8
20260905151019 30 240 0.0 6.4 0.00 0.00 0.00 75 1016.7
20260905150519 30 224 1.6 6.4 0.00 0.00 0.00 74 1016.8
20260905150040 29 216 0.0 8.0 0.00 0.00 0.00 76 1016.9
20260905145519 28 236 3.2 8.0 0.00 0.00 0.00 76 1016.8
20260905145018 28 287 0.0 6.4 0.00 0.00 0.00 79 1017.0
20260905144540 28 0 1.6 6.4 0.00 0.00 0.00 78 1017.1
20260905144018 28 276 1.6 4.8 0.00 0.00 0.00 78 1017.2
20260905143520 28 215 1.6 3.2 0.00 0.00 0.00 79 1017.1
20260905143041 28 0 0.0 6.4 0.00 0.00 0.00 79 1017.2
20260905142520 28 0 0.0 6.4 0.00 0.00 0.00 79 1017.1
20260905142018 28 265 1.6 4.8 0.00 0.00 0.00 79 1017.0
20260905141538 28 153 0.0 4.8 0.00 0.00 0.00 80 1016.9
20260905141022 27 219 1.6 6.4 0.00 0.00 0.00 79 1017.0
20260905140520 28 200 1.6 6.4 0.00 0.00 0.00 79 1016.9
20260905140044 28 234 3.2 4.8 0.00 0.00 0.00 78 1017.0
20260905135520 28 0 0.0 3.2 0.00 0.00 0.00 80 1017.0
20260905135019 27 162 0.0 4.8 0.00 0.00 0.00 80 1017.1
20260905134542 27 212 0.0 4.8 0.00 0.00 0.00 79 1017.1
20260905134023 27 172 0.0 4.8 0.00 0.00 0.00 83 1017.2
20260905133520 26 197 1.6 4.8 0.00 0.00 0.00 82 1017.2
20260905133041 26 0 0.0 1.6 0.00 0.00 0.00 84 1017.2
20260905132519 26 149 0.0 3.2 0.00 0.00 0.00 85 1017.2
20260905132020 26 187 0.0 3.2 0.00 0.00 0.00 85 1017.3
20260905131556 26 160 0.0 6.4 0.00 0.00 0.00 85 1017.4
20260905131019 26 221 1.6 6.4 0.00 0.00 0.00 85 1017.4
20260905130518 26 0 3.2 6.4 0.00 0.00 0.00 85 1017.4
20260905130047 26 205 1.6 6.4 0.00 0.00 0.00 84 1017.4
20260905125519 26 203 1.6 3.2 0.00 0.00 0.00 83 1017.5
20260905125020 26 0 0.0 3.2 0.00 0.00 0.00 84 1017.6
20260905124541 26 0 0.0 1.6 0.00 0.00 0.00 87 1017.6
20260905124021 26 143 0.0 1.6 0.00 0.00 0.00 89 1017.6
20260905123524 25 0 0.0 1.6 0.00 0.00 0.00 90 1017.6
20260905123042 24 0 0.0 1.6 0.00 0.00 0.00 91 1017.6
20260905122520 24 144 0.0 1.6 0.00 0.00 0.00 91 1017.6
20260905122018 24 141 0.0 1.6 0.00 0.00 0.00 91 1017.4
20260905121541 23 0 0.0 1.6 0.00 0.00 0.00 92 1017.4
20260905121018 23 0 0.0 1.6 0.00 0.00 0.00 94 1017.2
20260905120520 23 0 0.0 0.0 0.00 0.00 0.00 95 1017.3
20260905120042 23 0 0.0 0.0 0.00 0.00 0.00 95 1017.3
20260905115518 22 0 0.0 0.0 0.00 0.00 0.00 95 1017.2
20260905115022 22 0 0.0 0.0 0.00 0.00 0.00 96 1017.0
20260905114538 22 0 0.0 1.6 0.00 0.00 0.00 96 1016.8
20260905114019 22 0 0.0 1.6 0.00 0.00 0.00 96 1016.7
20260905113517 22 0 0.0 0.0 0.00 0.00 0.00 96 1016.6
20260905113038 21 0 0.0 0.0 0.00 0.00 0.00 96 1016.6
20260905112521 21 0 0.0 0.0 0.00 0.00 0.00 95 1016.5
20260905112023 21 0 0.0 0.0 0.00 0.00 0.00 94 1016.6
20260905111601 22 0 0.0 0.0 0.00 0.00 0.00 93 1016.5
20260905111020 22 0 0.0 1.6 0.00 0.00 0.00 92 1016.5
20260905110521 22 0 0.0 1.6 0.00 0.00 0.00 93 1016.5
20260905110037 22 0 0.0 0.0 0.00 0.00 0.00 93 1016.4
20260905105518 22 0 0.0 0.0 0.00 0.00 0.00 92 1016.3
20260905105019 22 0 0.0 0.0 0.00 0.00 0.00 92 1016.2
20260905104537 22 0 0.0 0.0 0.00 0.00 0.00 92 1016.1
20260905104024 22 0 0.0 0.0 0.00 0.00 0.00 92 1016.0
20260905103523 22 0 0.0 1.6 0.00 0.00 0.00 92 1016.1
20260905103042 22 0 0.0 4.8 0.00 0.00 0.00 92 1016.0
20260905102517 22 13 0.0 4.8 0.00 0.00 0.00 93 1016.1
20260905102020 22 6 1.6 4.8 0.00 0.00 0.00 93 1016.0
20260905101548 22 0 0.0 4.8 0.00 0.00 0.00 94 1016.0
20260905101021 22 0 1.6 4.8 0.00 0.00 0.00 95 1016.0
20260905100522 22 0 0.0 1.6 0.00 0.00 0.00 95 1016.0
20260905100042 22 0 0.0 1.6 0.00 0.00 0.00 94 1015.9